Location: Cerda�ola
(41.4919°N, 2.1403°E)
Time: 18:08:45
(UTC+00:00)

Lacrosse 4 Rocket - Pass Details

Date: 19 August 2020
Orbit: 544 x 615 km, 68.0° (Epoch: 30 September)

Event Time Altitude Azimuth Distance (km) Brightness Sun altitude
Rises 20:08:26 0° 190° (S) 2,806 4.7 -15.1°
Reaches altitude 10° 20:10:46 10° 184° (S) 1,897 3.8 -15.4°
Maximum altitude 20:14:47 42° 113° (ESE) 821 1.7 -16.1°
Drops below altitude 10° 20:18:45 10° 42° (NE) 1,869 3.9 -16.7°
Sets 20:21:01 0° 35° (NE) 2,758 4.9 -17.0°
